This is the latest recevied weather packets stored in our database for station/object W5CRT. If no packets are shown the sender has not sent any weather packets the latest 10 day(s).
| Time | Temp. | Humidity | Pressure | Rain* | Wind** | Luminosity | Snow |
|---|---|---|---|---|---|---|---|
| 1777921969 | 26.67° C | 46% | 1008.8 hPa | 0 mm | - | 1053 W/m² | - |
| 1777921665 | 27.22° C | 44% | 1008.7 hPa | 0 mm | - | 1044 W/m² | - |
| 1777921361 | 26.67° C | 45% | 1008.9 hPa | 0 mm | - | 1054 W/m² | - |
| 1777921058 | 27.22° C | 45% | 1009 hPa | 0 mm | - | 1040 W/m² | - |
| 1777920755 | 26.67° C | 44% | 1008.6 hPa | 0 mm | - | 1037 W/m² | - |
| 1777920451 | 26.11° C | 45% | 1008.7 hPa | 0 mm | - | 1053 W/m² | - |
| 1777920147 | 26.11° C | 45% | 1008.7 hPa | 0 mm | - | 1082 W/m² | - |
| 1777919843 | 26.11° C | 46% | 1008.9 hPa | 0 mm | - | 861 W/m² | - |
| 1777919540 | 26.11° C | 46% | 1009.2 hPa | 0 mm | - | 833 W/m² | - |
| 1777919238 | 25.56° C | 47% | 1009.2 hPa | 0 mm | - | 1076 W/m² | - |
| 1777918935 | 25.56° C | 48% | 1009.4 hPa | 0 mm | - | 752 W/m² | - |
| 1777918633 | 25.56° C | 46% | 1009.4 hPa | 0 mm | - | 466 W/m² | - |
| 1777918330 | 26.11° C | 46% | 1009.3 hPa | 0 mm | - | 1027 W/m² | - |
| 1777918029 | 26.11° C | 47% | 1009.4 hPa | 0 mm | - | 898 W/m² | - |
| 1777917727 | 25.56° C | 48% | 1009.5 hPa | 0 mm | - | 1024 W/m² | - |
| 1777917424 | 25.56° C | 48% | 1009.7 hPa | 0 mm | - | 1117 W/m² | - |
| 1777917121 | 25.56° C | 48% | 1010 hPa | 0 mm | - | 978 W/m² | - |
| 1777916819 | 25.56° C | 47% | 1010 hPa | 0 mm | - | 1028 W/m² | - |
| 1777916516 | 25° C | 47% | 1009.8 hPa | 0 mm | - | 1018 W/m² | - |
| 1777916212 | 24.44° C | 48% | 1010.3 hPa | 0 mm | - | 1044 W/m² | - |
| 1777915910 | 24.44° C | 47% | 1010.3 hPa | 0 mm | - | 955 W/m² | - |
| 1777915606 | 24.44° C | 49% | 1010.1 hPa | 0 mm | - | 931 W/m² | - |
| 1777915303 | 24.44° C | 49% | 1010.3 hPa | 0 mm | - | 858 W/m² | - |
| 1777914999 | 24.44° C | 49% | 1010.4 hPa | 0 mm | - | 718 W/m² | - |
| 1777914697 | 23.89° C | 50% | 1010.4 hPa | 0 mm | - | 834 W/m² | - |
* Rain latest hour (hover to see other rain measurements)
** Current wind speed in m/s (hover to see current wind gust speed)